User: anonymous   Login
Location: Ostrava
(49.8330°N, 18.2830°E)
Time: 07:14:59
(UTC+01:00)
Language:

Cosmos 1766 - Orbit

View from above orbital plane
View from above orbital plane
View from above satellite
View from above satellite

Ground track
Ground track

The orbit data is extracted from the following two-line orbital elements,

1 16881U 86055A   18021.61748208 +.00001349 +00000-0 +80040-4 0  9999
2 16881 082.5069 169.9700 0018698 069.7532 290.5706 15.10388684693249
Epoch (UTC): 21 January 2018 14:49:10
Eccentricity: 0.0018698
inclination: 82.5069°
perigee height: 522 km
apogee height: 548 km
right ascension of ascending node: 169.9700°
argument of perigee: 69.7532°
revolutions per day: 15.10388684
mean anomaly at epoch: 290.5706°
orbit number at epoch: 69324

The dashed part of the orbit path shows where the satellite is in the earth's shadow,  

DLR